• en France
  • Liste des pays
  • À 7 jours
  • Température de l'eau
  • Carte satellitaire
  • Carte météo
  • Widgets météo
  • user-avatar
    Se connecter

    Météo par heure à Daloa

    Ce jour, 14 Novembre, Mercredi

    Heure Température Précipitation Vent Pression Humidité
    00:00 +25°C° 0 mm 1 m/s 736 mmHg 88%
    01:00 +25°C° 0 mm 1 m/s 735 mmHg 90%
    02:00 +25°C° 0 mm 1 m/s 735 mmHg 91%
    03:00 +24°C° 0 mm 1 m/s 734 mmHg 93%
    04:00 +24°C° 0 mm 1 m/s 734 mmHg 94%
    05:00 +24°C° 0 mm 1 m/s 734 mmHg 95%
    06:00 +24°C° 0 mm 1 m/s 735 mmHg 96%
    07:00 +25°C° 0 mm 1 m/s 735 mmHg 89%
    08:00 +27°C° 0 mm 1 m/s 735 mmHg 82%
    09:00 +29°C° 0 mm 1 m/s 736 mmHg 75%
    10:00 +31°C° 0 mm 1 m/s 736 mmHg 64%
    11:00 +34°C° 0 mm 1 m/s 735 mmHg 54%
    12:00 +35°C° 0 mm 0 m/s 735 mmHg 44%
    13:00 +34°C° 0 mm 0 m/s 735 mmHg 45%
    14:00 +33°C° 0 mm 0 m/s 734 mmHg 46%
    15:00 +33°C° 0 mm 0 m/s 733 mmHg 48%
    16:00 +31°C° 0 mm 0 m/s 734 mmHg 53%
    17:00 +32°C° 0 mm 1 m/s 734 mmHg 59%
    18:00 +30°C° 0 mm 1 m/s 734 mmHg 65%
    19:00 +29°C° 0 mm 1 m/s 734 mmHg 69%
    20:00 +28°C° 0 mm 1 m/s 735 mmHg 73%
    21:00 +27°C° 0 mm 1 m/s 736 mmHg 78%
    22:00 +27°C° 0 mm 1 m/s 736 mmHg 81%
    23:00 +26°C° 0 mm 1 m/s 736 mmHg 84%

    Demain, 15 Novembre, Jeudi

    Heure Température Précipitation Vent Pression Humidité
    00:00 +26°C° 0 mm 2 m/s 736 mmHg 87%
    01:00 +26°C° 0 mm 2 m/s 736 mmHg 89%
    02:00 +25°C° 0 mm 1 m/s 735 mmHg 91%
    03:00 +25°C° 0 mm 1 m/s 735 mmHg 93%
    04:00 +25°C° 0 mm 1 m/s 735 mmHg 94%
    05:00 +25°C° 0 mm 1 m/s 735 mmHg 95%
    06:00 +24°C° 0 mm 1 m/s 735 mmHg 96%
    07:00 +26°C° 0 mm 1 m/s 735 mmHg 89%
    08:00 +27°C° 0 mm 1 m/s 736 mmHg 83%
    09:00 +29°C° 0 mm 2 m/s 736 mmHg 76%
    10:00 +31°C° 0 mm 1 m/s 736 mmHg 68%
    11:00 +32°C° 0 mm 1 m/s 736 mmHg 61%
    12:00 +34°C° 0 mm 1 m/s 736 mmHg 53%
    13:00 +34°C° 0.1 mm 1 m/s 735 mmHg 52%
    14:00 +35°C° 0.1 mm 1 m/s 734 mmHg 51%
    15:00 +35°C° 0.1 mm 1 m/s 733 mmHg 50%
    16:00 +33°C° 0.1 mm 1 m/s 734 mmHg 58%
    17:00 +31°C° 0.1 mm 1 m/s 734 mmHg 67%
    18:00 +29°C° 0.1 mm 1 m/s 734 mmHg 75%
    19:00 +28°C° 0.1 mm 1 m/s 735 mmHg 81%
    20:00 +27°C° 0.1 mm 1 m/s 735 mmHg 86%
    21:00 +26°C° 0.1 mm 1 m/s 736 mmHg 92%
    22:00 +25°C° 0 mm 1 m/s 736 mmHg 93%
    23:00 +25°C° 0 mm 1 m/s 736 mmHg 95%

    Après-demain, 16 Novembre, Vendredi

    Heure Température Précipitation Vent Pression Humidité
    00:00 +25°C° 0 mm 1 m/s 737 mmHg 96%
    01:00 +25°C° 0 mm 1 m/s 736 mmHg 96%
    02:00 +24°C° 0 mm 1 m/s 736 mmHg 97%
    03:00 +24°C° 0 mm 1 m/s 736 mmHg 97%
    04:00 +24°C° 0 mm 1 m/s 736 mmHg 98%
    05:00 +24°C° 0 mm 1 m/s 736 mmHg 98%
    06:00 +24°C° 0 mm 1 m/s 736 mmHg 99%
    07:00 +25°C° 0 mm 1 m/s 737 mmHg 92%
    08:00 +27°C° 0 mm 1 m/s 737 mmHg 85%
    09:00 +28°C° 0 mm 1 m/s 738 mmHg 78%
    10:00 +30°C° 0 mm 1 m/s 737 mmHg 69%
    11:00 +33°C° 0 mm 1 m/s 737 mmHg 59%
    12:00 +35°C° 0 mm 1 m/s 737 mmHg 49%
    13:00 +35°C° 0 mm 1 m/s 736 mmHg 47%
    14:00 +36°C° 0 mm 1 m/s 735 mmHg 44%
    15:00 +36°C° 0 mm 1 m/s 734 mmHg 42%
    16:00 +34°C° 0 mm 1 m/s 735 mmHg 50%
    17:00 +32°C° 0 mm 1 m/s 735 mmHg 58%
    18:00 +30°C° 0 mm 1 m/s 735 mmHg 67%
    19:00 +29°C° 0.1 mm 1 m/s 735 mmHg 74%
    20:00 +27°C° 0.1 mm 1 m/s 736 mmHg 81%
    21:00 +26°C° 0.1 mm 1 m/s 737 mmHg 88%
    22:00 +26°C° 0 mm 1 m/s 737 mmHg 90%
    23:00 +25°C° 0 mm 1 m/s 737 mmHg 92%

    17 Novembre, Samedi

    Heure Température Précipitation Vent Pression Humidité
    00:00 +25°C° 0 mm 1 m/s 737 mmHg 95%
    01:00 +25°C° 0.4 mm 1 m/s 736 mmHg 95%
    02:00 +25°C° 0.4 mm 1 m/s 736 mmHg 96%
    03:00 +24°C° 0.4 mm 1 m/s 736 mmHg 97%
    04:00 +24°C° 0 mm 1 m/s 736 mmHg 97%
    05:00 +24°C° 0 mm 1 m/s 736 mmHg 98%
    06:00 +24°C° 0 mm 1 m/s 736 mmHg 98%
    07:00 +25°C° 0 mm 1 m/s 737 mmHg 94%
    08:00 +26°C° 0 mm 1 m/s 737 mmHg 89%
    09:00 +27°C° 0 mm 1 m/s 738 mmHg 84%
    10:00 +29°C° 0 mm 1 m/s 738 mmHg 76%
    11:00 +31°C° 0 mm 1 m/s 737 mmHg 68%
    12:00 +32°C° 0 mm 2 m/s 737 mmHg 59%
    13:00 +32°C° 0.5 mm 1 m/s 736 mmHg 64%
    14:00 +32°C° 0.5 mm 1 m/s 735 mmHg 68%
    15:00 +31°C° 0.5 mm 1 m/s 734 mmHg 73%
    16:00 +30°C° 1.2 mm 1 m/s 735 mmHg 80%
    17:00 +28°C° 1.2 mm 1 m/s 735 mmHg 86%
    18:00 +27°C° 1.2 mm 1 m/s 735 mmHg 93%
    19:00 +26°C° 0.3 mm 1 m/s 736 mmHg 94%
    20:00 +26°C° 0.3 mm 1 m/s 737 mmHg 95%
    21:00 +25°C° 0.3 mm 1 m/s 737 mmHg 96%
    22:00 +25°C° 0 mm 1 m/s 737 mmHg 96%
    23:00 +25°C° 0 mm 1 m/s 737 mmHg 96%

    18 Novembre, Dimanche

    Heure Température Précipitation Vent Pression Humidité
    00:00 +25°C° 0 mm 1 m/s 737 mmHg 97%
    01:00 +24°C° 0 mm 1 m/s 736 mmHg 97%
    02:00 +24°C° 0 mm 1 m/s 736 mmHg 98%
    03:00 +24°C° 0 mm 1 m/s 735 mmHg 98%
    04:00 +24°C° 0 mm 1 m/s 736 mmHg 98%
    05:00 +24°C° 0 mm 1 m/s 736 mmHg 98%
    06:00 +24°C° 0 mm 1 m/s 736 mmHg 98%
    07:00 +25°C° 0 mm 1 m/s 737 mmHg 93%
    08:00 +26°C° 0 mm 1 m/s 737 mmHg 87%
    09:00 +27°C° 0 mm 1 m/s 738 mmHg 82%
    10:00 +30°C° 0 mm 1 m/s 737 mmHg 72%
    11:00 +32°C° 0 mm 1 m/s 737 mmHg 61%
    12:00 +34°C° 0 mm 1 m/s 737 mmHg 51%
    13:00 +34°C° 0 mm 1 m/s 736 mmHg 50%
    14:00 +34°C° 0 mm 1 m/s 735 mmHg 49%
    15:00 +34°C° 0 mm 1 m/s 734 mmHg 48%
    16:00 +33°C° 0 mm 1 m/s 734 mmHg 54%
    17:00 +31°C° 0 mm 1 m/s 734 mmHg 61%
    18:00 +29°C° 0 mm 1 m/s 734 mmHg 68%
    19:00 +29°C° 0.1 mm 1 m/s 735 mmHg 70%
    20:00 +28°C° 0.1 mm 1 m/s 736 mmHg 72%
    21:00 +27°C° 0.1 mm 1 m/s 736 mmHg 75%
    22:00 +26°C° 0.3 mm 1 m/s 736 mmHg 80%
    23:00 +26°C° 0.3 mm 1 m/s 736 mmHg 86%

    19 Novembre, Lundi

    Heure Température Précipitation Vent Pression Humidité
    00:00 +25°C° 0.3 mm 1 m/s 736 mmHg 92%
    01:00 +25°C° 0.1 mm 1 m/s 736 mmHg 94%
    02:00 +24°C° 0.1 mm 1 m/s 735 mmHg 95%
    03:00 +24°C° 0.1 mm 1 m/s 735 mmHg 97%
    04:00 +24°C° 0 mm 1 m/s 735 mmHg 97%
    05:00 +24°C° 0 mm 1 m/s 736 mmHg 98%
    06:00 +24°C° 0 mm 1 m/s 736 mmHg 98%
    07:00 +25°C° 0 mm 1 m/s 736 mmHg 92%
    08:00 +27°C° 0 mm 1 m/s 737 mmHg 85%
    09:00 +28°C° 0 mm 1 m/s 737 mmHg 79%
    10:00 +31°C° 0 mm 1 m/s 737 mmHg 69%
    11:00 +33°C° 0 mm 1 m/s 736 mmHg 58%
    12:00 +35°C° 0 mm 1 m/s 736 mmHg 48%
    13:00 +35°C° 0.4 mm 1 m/s 735 mmHg 51%
    14:00 +34°C° 0.4 mm 1 m/s 734 mmHg 53%
    15:00 +33°C° 0.4 mm 1 m/s 734 mmHg 56%
    16:00 +31°C° 0.4 mm 1 m/s 734 mmHg 66%
    17:00 +29°C° 0.4 mm 1 m/s 734 mmHg 76%
    18:00 +27°C° 0.4 mm 1 m/s 735 mmHg 86%
    19:00 +27°C° 0.2 mm 1 m/s 735 mmHg 88%
    20:00 +26°C° 0.2 mm 1 m/s 736 mmHg 91%
    21:00 +25°C° 0.2 mm 1 m/s 737 mmHg 93%
    22:00 +25°C° 0.1 mm 1 m/s 736 mmHg 94%
    23:00 +25°C° 0.1 mm 1 m/s 736 mmHg 95%
    Voir plus